Flag for Canada Weather past 2 weeks in Kitchener, Ontario, Canada

Now
64 °F

Passing clouds.


Feels Like: 64 °F
Forecast: 49 / 67 °F
Wind: 8 mph from West

Location: Waterloo Well

Current Time: Jul 29, 2014 at 12:26:18 PM

Latest Report: Jul 29, 2014 at 12:00 PM


Visibility: 9 mi

Pressure: 29.96 "Hg

Humidity: 56%

Dew point: 48 °F

Location of KitchenerLocation

Historic Weather in Kitchener — Graph

°F

Kitchener temperature yesterday

Maximum temperature yesterday: 68 °F (at 2:00 PM)
Minimum temperature yesterday: 52 °F (at 11:00 PM)
Average temperature yesterday: 61 °F

Past Weeks' High & Low Weather Summary

 TemperatureHumidityPressure
High82 °F (Jul 21, 4:00 PM)100% (Jul 17, 2:58 AM)30.26 "Hg (Jul 17, 2:58 AM)
Low45 °F (Jul 17, 4:00 AM)34% (Jul 17, 3:00 PM)29.59 "Hg (Jul 28, 12:57 AM)
Average64 °F77%29.97 "Hg
* Reported Jul 14 11:00 AM — Jul 29 11:00 AM, Kitchener, Weather by CustomWeather, © 2014

Note: Actual official high and low records may vary slightly from our data, if they occured in-between our weather recording intervals... More about our weather records

Advertising

Kitchener weather history for previous 24 hours

 ConditionsComfort  
Time TempWeatherWind HumidityBarometerVisibility
11:00 AM
Jul 29
66 °FSunny.9 mph52%29.96 "Hg9 mi
10:00 AM59 °FPartly sunny.8 mph72%29.97 "Hg9 mi
9:00 AM57 °FOvercast.7 mph88%29.96 "Hg9 mi
8:00 AM55 °FOvercast.8 mph88%29.95 "Hg9 mi
7:00 AM54 °FOvercast.5 mph88%29.93 "Hg9 mi
6:00 AM52 °FOvercast.8 mph94%29.93 "Hg9 mi
5:00 AM52 °FOvercast.8 mph94%29.91 "Hg9 mi
4:00 AM50 °FOvercast.8 mph100%29.91 "Hg9 mi
3:00 AM50 °FClear.7 mph94%29.92 "Hg9 mi
2:00 AM50 °FPassing clouds.7 mph94%29.91 "Hg9 mi
1:00 AM50 °FPassing clouds.7 mph94%29.91 "Hg9 mi
12:00 AM52 °FPassing clouds.7 mph88%29.92 "Hg9 mi
11:00 PM
Jul 28
52 °FClear.8 mph88%29.92 "Hg9 mi
10:00 PM54 °FClear.12 mph82%29.92 "Hg9 mi
9:00 PM55 °FScattered clouds.10 mph77%29.90 "Hg9 mi
8:00 PM57 °FPartly sunny.9 mph67%29.89 "Hg9 mi
7:00 PM59 °FPartly sunny.12 mph68%29.89 "Hg9 mi
6:00 PM59 °FMostly cloudy.15 mph68%29.88 "Hg9 mi
5:00 PM64 °FScattered clouds.21 mph60%29.85 "Hg9 mi
4:00 PM66 °FScattered clouds.18 mph56%29.83 "Hg9 mi
3:00 PM64 °FScattered clouds.17 mph64%29.81 "Hg9 mi
2:00 PM68 °FScattered clouds.18 mph60%29.79 "Hg9 mi
1:00 PM64 °FPassing clouds.14 mph68%29.79 "Hg9 mi
12:00 PM61 °FScattered clouds.17 mph83%29.78 "Hg9 mi
Weather by CustomWeather, © 2014

See weather overviewHow to use our weather pages